Terug naar catalogus

COSMOS 1362

ActiefMilitairLEO
NORAD 13165·PAYLOAD·🇷🇺 Russia

Gelanceerd May 6, 1982 vanaf Plesetsk Cosmodrome

Loading…

Volgende Passages (komende 24 uur)

TLE

VersSource: Space-Track

Epoch: Sep 14, 2026, 13:37 UTC

1 13165U 82040F   26257.56790122  .00000001  00000-0  11292-3 0  9993
2 13165  74.0158 348.6107 0017784 176.0934 196.1813 12.46161586 17860

Volg COSMOS 1362 in realtime met AllMySat

Download on the App Store